Location: Jordan Lake
(35.7395°N, 79.0242°W)
Time: 11:52:10
(UTC-05:00)

Envisat - Visible Passes

Search period start: 06 December 2019 00:00
Search period end: 16 December 2019 00:00
Orbit: 764 x 766 km, 98.1° (Epoch: 06 December)

Date Brightness Start Highest point End Pass type
(mag) Time Alt. Az. Time Alt. Az. Time Alt. Az.
06 Dec 3.1 18:24:14 10° S 18:29:18 79° WSW 18:34:24 10° NNW visible
07 Dec 4.4 06:36:14 10° NNE 06:41:06 45° E 06:45:56 10° S visible
07 Dec 3.3 17:47:51 10° SE 17:52:38 44° ENE 17:57:26 10° N visible
07 Dec 5.7 19:28:23 10° SW 19:31:49 18° W 19:35:15 10° NW visible
08 Dec 5.9 06:00:32 10° NE 06:04:08 19° E 06:07:41 10° SE visible
08 Dec 4.2 18:50:03 10° S 18:54:50 42° W 18:59:39 10° NNW visible
09 Dec 2.9 18:12:58 10° SSE 18:18:02 81° ENE 18:23:07 10° N visible
10 Dec 4.9 06:25:08 10° NNE 06:29:46 35° E 06:34:22 10° SSE visible
10 Dec 3.6 17:36:52 10° SE 17:41:25 34° ENE 17:45:59 10° N visible
10 Dec 5.3 19:16:27 10° SSW 19:20:27 23° W 19:24:28 10° NW visible
11 Dec 6.1 05:49:56 10° ENE 05:52:45 15° E 05:55:32 10° SE visible
11 Dec 3.7 18:38:34 10° S 18:43:31 55° W 18:48:30 10° NNW visible
12 Dec 3.0 18:01:47 10° SSE 18:06:47 63° ENE 18:11:48 10° N visible
12 Dec 6.1 19:44:05 10° WSW 19:46:10 12° W 19:48:16 10° WNW visible
13 Dec 5.3 06:14:08 10° NE 06:18:26 27° E 06:22:42 10° SSE visible
13 Dec 3.9 17:26:00 10° SE 17:30:13 27° ENE 17:34:27 10° NNE visible
13 Dec 4.9 19:04:42 10° SSW 19:09:06 30° W 19:13:32 10° NW visible
14 Dec 6.3 05:39:56 10° ENE 05:41:21 11° E 05:42:46 10° ESE visible
14 Dec 3.2 18:27:11 10° S 18:32:13 72° WSW 18:37:19 10° NNW visible
15 Dec 4.1 06:39:06 10° NNE 06:44:02 50° E 06:48:56 10° S visible
15 Dec 3.2 17:50:41 10° SE 17:55:32 48° ENE 18:00:25 10° N visible
15 Dec 5.8 19:31:38 10° SW 19:34:47 16° W 19:37:56 10° NW visible
